Location: *
(49.0044°N, 9.5056°E)
Time: 03:02:27
(UTC+00:00)

Resurs 1-3 - Pass Details

Date: 22 September 2019
Orbit: 630 x 632 km, 98.0° (Epoch: 22 October)

Event Time Altitude Azimuth Distance (km) Brightness Sun altitude
Exits shadow 18:47:34 25° 116° (ESE) 1,294 4.6 -14.8°
Maximum altitude 18:49:29 37° 68° (ENE) 987 4.2 -15.1°
Drops below altitude 10° 18:53:33 10° 1° (N) 2,027 6.4 -15.8°
Sets 18:55:52 0° 353° (N) 2,939 7.4 -16.1°
